FW4267 Weather Reports


time (UTC)temp
F
wind
direction
speed
knots
gust
knots
rain 1hr
in
rain 24hr
in
rain mn
in
humidity
%
barometer
mb
20260504081218 61 90 0.9 3.5 0.00 0.06 0.00 92 1011.8
20260504080717 61 99 1.7 3.5 0.00 0.06 0.00 94 1011.9
20260504080217 60 87 0.9 2.6 0.00 0.06 0.00 96 1011.8
20260504070217 57 94 0.0 1.7 0.00 0.06 0.00 96 1011.8
20260504050724 56 99 0.0 0.0 0.00 0.06 0.00 94 1011.2
20260504050522 56 99 0.0 0.0 0.00 0.06 0.00 95 1011.2
20260504050018 56 99 0.0 0.0 0.00 0.06 0.00 95 1011.1
20260504045212 56 99 0.0 0.0 0.00 0.06 0.00 95 1011.1
20260504044714 56 99 0.0 0.0 0.00 0.06 0.00 95 1011.1
20260504044213 56 99 0.0 0.0 0.00 0.06 0.00 94 1011.2
20260504043712 56 99 0.0 0.0 0.00 0.06 0.00 94 1011.2
20260504043212 56 99 0.0 0.0 0.00 0.06 0.00 94 1011.2
20260504042709 56 99 0.0 0.9 0.00 0.06 0.00 94 1011.1
20260504042519 56 99 0.0 0.9 0.00 0.06 0.00 94 1010.9
20260504041711 56 99 0.0 0.0 0.00 0.06 0.00 94 1011.0
20260504041212 56 99 0.0 0.0 0.00 0.06 0.00 94 1011.1
20260504040711 56 99 0.0 0.9 0.00 0.06 0.00 94 1011.1
20260504040213 56 99 0.0 1.7 0.00 0.06 0.00 94 1010.8
20260504035712 56 99 0.9 1.7 0.00 0.06 0.00 94 1010.7
20260504035515 56 106 0.0 0.9 0.00 0.06 0.00 94 1010.8
20260504034711 56 113 0.0 0.0 0.00 0.06 0.00 94 1010.8
20260504034211 56 113 0.0 0.9 0.00 0.06 0.00 94 1010.9
20260504034018 56 113 0.0 0.9 0.00 0.06 0.00 94 1010.8
20260504033210 56 113 0.0 0.0 0.00 0.06 0.00 94 1010.8
20260504032711 56 113 0.0 0.0 0.00 0.06 0.00 94 1010.9
20260504032210 56 113 0.0 0.9 0.00 0.06 0.00 94 1010.9
20260504031713 56 113 0.0 0.9 0.00 0.06 0.00 94 1010.9
20260504031211 56 113 0.0 0.0 0.00 0.06 0.00 94 1010.8
20260504031021 56 113 0.0 0.0 0.00 0.06 0.00 94 1010.8
20260504030209 56 113 0.0 0.0 0.00 0.06 0.00 94 1010.9
20260504030036 56 113 0.0 0.0 0.00 0.06 0.00 94 1010.7
20260504025517 56 113 0.0 0.9 0.00 0.06 0.00 94 1010.6
20260504024709 56 113 0.0 0.9 0.00 0.06 0.00 94 1010.6
20260504024212 56 107 0.9 0.9 0.00 0.06 0.00 94 1010.5
20260504023709 56 120 0.0 1.7 0.00 0.06 0.00 94 1010.5
20260504023210 56 110 0.0 2.6 0.00 0.06 0.00 94 1010.5
20260504022709 56 100 0.9 2.6 0.00 0.06 0.00 94 1010.4
20260504022208 56 100 0.9 3.5 0.00 0.06 0.00 94 1010.4
20260504021710 56 85 1.7 3.5 0.00 0.06 0.00 94 1010.5
20260504021209 56 109 0.9 2.6 0.00 0.06 0.00 95 1010.5
20260504020709 56 116 1.7 2.6 0.00 0.06 0.00 95 1010.3
20260504020519 56 102 0.0 2.6 0.00 0.06 0.00 95 1010.3
20260504020016 56 116 0.0 2.6 0.00 0.06 0.00 95 1010.3
20260504015209 56 100 0.9 4.3 0.00 0.06 0.00 95 1010.2
20260504015021 56 90 0.9 4.3 0.00 0.06 0.00 95 1010.3
20260504014208 56 104 0.0 0.9 0.00 0.06 0.00 95 1010.2
20260504013709 56 103 0.9 0.9 0.00 0.06 0.00 95 1010.2
20260504013206 56 103 0.0 0.0 0.00 0.06 0.00 95 1010.3
20260504012707 56 103 0.0 0.0 0.00 0.06 0.00 95 1010.3
20260504012209 56 103 0.0 0.0 0.00 0.06 0.00 95 1010.3
20260504011708 56 103 0.0 0.0 0.00 0.06 0.00 95 1010.4
20260504011208 56 103 0.0 0.0 0.00 0.06 0.00 95 1010.4
20260504010707 56 103 0.0 0.0 0.00 0.06 0.00 95 1010.3
20260504010207 56 103 0.0 0.0 0.00 0.06 0.00 95 1010.4
20260504005706 56 103 0.0 0.0 0.00 0.06 0.00 95 1010.4
20260504005204 56 103 0.0 0.0 0.00 0.06 0.00 95 1010.6
20260504004708 56 103 0.0 0.0 0.00 0.06 0.00 95 1010.7
20260504004207 56 103 0.0 0.0 0.00 0.06 0.00 94 1010.8
20260504003708 56 103 0.0 0.9 0.00 0.06 0.00 94 1010.7
20260504003206 56 103 0.0 0.9 0.00 0.06 0.00 95 1010.5
20260504002709 56 103 0.0 0.9 0.00 0.06 0.00 94 1010.6
20260504002206 56 103 0.0 0.9 0.00 0.06 0.00 94 1010.6
20260504001706 56 103 0.0 0.9 0.00 0.06 0.00 94 1010.6
20260504001206 56 103 0.0 0.9 0.00 0.06 0.00 94 1010.4
20260504000707 56 103 0.0 0.9 0.00 0.06 0.00 94 1010.4
20260504000220 56 103 0.0 0.9 0.00 0.06 0.00 94 1010.5
20260503235705 56 106 0.9 0.9 0.00 0.06 0.00 94 1010.5
20260503235208 56 114 0.0 0.9 0.00 0.06 0.00 94 1010.8
20260503234706 56 114 0.0 0.9 0.00 0.06 0.00 94 1010.8
20260503234217 56 114 0.0 0.9 0.00 0.06 0.00 94 1010.8
20260503233706 56 114 0.0 0.9 0.00 0.06 0.00 94 1010.9
20260503233517 57 114 0.0 0.0 0.00 0.06 0.00 94 1010.7
20260503232704 57 114 0.0 0.9 0.00 0.06 0.00 94 1010.8
20260503232204 57 113 0.0 0.9 0.00 0.06 0.00 94 1010.9
20260503232012 57 114 0.0 0.9 0.00 0.06 0.00 94 1010.8
20260503231206 57 114 0.0 0.9 0.00 0.06 0.00 94 1010.8
20260503230815 57 114 0.0 0.9 0.00 0.06 0.00 94 1010.8
20260503225704 57 103 0.0 0.9 0.00 0.06 0.00 94 1010.8
20260503225204 57 103 0.0 0.9 0.00 0.06 0.00 94 1010.9
20260503224702 57 103 0.0 0.9 0.00 0.06 0.00 94 1010.9
20260503224517 57 103 0.0 0.0 0.00 0.06 0.00 94 1010.9
20260503223705 57 103 0.0 0.0 0.00 0.06 0.00 94 1011.0
20260503223206 57 103 0.0 0.0 0.00 0.06 0.00 94 1010.9
20260503223018 57 103 0.0 0.0 0.00 0.06 0.00 94 1010.9
20260503222207 57 103 0.0 0.0 0.00 0.06 0.00 94 1011.1
20260503221704 57 103 0.0 0.0 0.00 0.06 0.00 94 1011.2
20260503221204 57 103 0.0 0.0 0.00 0.06 0.00 94 1011.2
20260503220703 57 103 0.0 0.0 0.00 0.06 0.00 94 1011.2
20260503220204 57 103 0.0 0.0 0.00 0.06 0.00 94 1011.3
20260503215705 57 103 0.0 0.0 0.00 0.06 0.06 93 1011.3
20260503215203 57 103 0.0 0.0 0.00 0.06 0.06 93 1011.3
20260503214705 57 103 0.0 0.0 0.00 0.06 0.06 93 1011.3
20260503214203 57 103 0.0 0.0 0.00 0.06 0.06 93 1011.3
20260503213709 57 103 0.0 0.9 0.00 0.06 0.06 93 1011.3
20260503213204 57 103 0.0 0.9 0.00 0.06 0.06 93 1011.2
20260503212703 58 103 0.0 0.9 0.00 0.06 0.06 93 1011.2
20260503212406 58 103 0.0 0.9 0.01 0.06 0.06 93 1011.1
20260503212315 58 103 0.0 0.9 0.00 0.06 0.06 93 1011.1
20260503211205 58 103 0.0 1.7 0.02 0.06 0.06 93 1011.3
20260503210707 58 111 0.0 2.6 0.03 0.06 0.06 93 1011.2
20260503210205 58 93 0.9 3.5 0.04 0.06 0.06 93 1011.1
20260503205703 58 113 0.9 3.5 0.05 0.06 0.06 93 1011.0
20260503205206 58 113 1.7 4.3 0.06 0.06 0.06 93 1011.0
20260503204702 58 111 1.7 4.3 0.06 0.06 0.06 93 1010.9
20260503204159 58 116 2.6 3.5 0.06 0.06 0.06 93 1011.0
20260503204035 58 89 0.9 0.9 0.06 0.06 0.06 92 1011.1
20260503203201 58 92 0.0 0.9 0.06 0.06 0.06 92 1011.1
20260503203029 58 62 0.0 0.9 0.06 0.06 0.06 92 1011.2
20260503202202 58 62 0.0 0.9 0.06 0.06 0.06 92 1011.1
20260503202035 58 62 0.0 0.9 0.05 0.06 0.06 91 1011.1
20260503201203 58 62 0.0 0.9 0.03 0.04 0.04 91 1011.1
20260503201025 59 341 0.0 0.9 0.03 0.03 0.03 91 1011.2
20260503200531 59 341 0.9 0.9 0.02 0.02 0.02 90 1011.3
20260503195658 59 61 0.0 0.9 0.02 0.02 0.02 90 1011.2
20260503195200 59 113 0.0 1.7 0.01 0.01 0.01 89 1011.1
20260503194702 59 288 0.0 1.7 0.01 0.01 0.01 89 1011.1
20260503194202 59 203 0.0 0.9 0.01 0.01 0.01 88 1011.1
20260503194013 59 203 0.0 0.9 0.01 0.01 0.01 88 1011.0
20260503193202 59 203 0.0 2.6 0.01 0.01 0.01 88 1011.0
20260503192701 60 199 0.0 4.3 0.01 0.01 0.01 87 1010.9
20260503192539 60 109 1.7 6.1 0.01 0.01 0.01 87 1010.7
20260503191701 60 113 2.6 6.1 0.01 0.01 0.01 87 1010.3
20260503191157 60 107 2.6 7.8 0.01 0.01 0.01 87 1010.2
20260503190700 60 99 3.5 8.7 0.00 0.00 0.00 86 1010.1
20260503190159 60 113 5.2 9.6 0.00 0.00 0.00 85 1010.1
20260503185705 60 97 6.1 9.6 0.00 0.00 0.00 84 1010.2
20260503185200 61 96 3.5 9.6 0.00 0.00 0.00 84 1010.2
20260503184702 61 110 5.2 9.6 0.00 0.00 0.00 83 1010.1
20260503184200 61 93 2.6 12.2 0.00 0.00 0.00 83 1010.1
20260503183700 61 104 4.3 12.2 0.00 0.00 0.00 83 1010.0
20260503183536 61 92 4.3 10.4 0.00 0.00 0.00 83 1009.9
20260503182658 61 117 5.2 10.4 0.00 0.00 0.00 83 1009.9
20260503182405 61 125 5.2 11.3 0.00 0.00 0.00 83 1010.0
20260503182317 61 128 5.2 10.4 0.00 0.00 0.00 83 1009.9
20260503181202 61 80 5.2 14.8 0.00 0.00 0.00 83 1010.0
20260503180659 61 102 7.0 14.8 0.00 0.00 0.00 82 1009.9
20260503180530 61 83 5.2 10.4 0.00 0.00 0.00 83 1009.8
20260503175659 61 107 5.2 13.9 0.00 0.00 0.00 83 1009.8
20260503175158 61 104 7.8 13.9 0.00 0.00 0.00 82 1009.7
20260503174657 61 82 7.0 13.9 0.00 0.00 0.00 82 1009.6
20260503174155 61 121 5.2 11.3 0.00 0.00 0.00 82 1009.7
20260503173659 61 97 7.0 14.8 0.00 0.00 0.00 82 1009.6
20260503173158 61 114 7.8 14.8 0.00 0.00 0.00 82 1009.7
20260503173029 61 107 8.7 17.4 0.00 0.00 0.00 82 1009.7
20260503172157 61 117 8.7 17.4 0.00 0.00 0.00 82 1009.8
20260503171658 62 103 9.6 14.8 0.00 0.00 0.00 81 1009.8
20260503171158 62 102 7.8 18.2 0.00 0.00 0.00 81 1010.0
20260503171020 62 93 8.7 18.2 0.00 0.00 0.00 81 1009.9
20260503170158 62 100 7.8 16.5 0.00 0.00 0.00 81 1010.1
20260503160155 64 97 10.4 15.6 0.00 0.00 0.00 78 1010.1
20260503150655 67 103 8.7 17.4 0.00 0.00 0.00 74 1010.6
20260503150153 66 71 10.4 22.6 0.00 0.00 0.00 75 1010.5
20260503140153 68 135 7.8 15.6 0.00 0.00 0.00 70 1011.5
20260503131151 70 116 8.7 14.8 0.00 0.00 0.00 65 1011.5
20260503131004 70 96 7.0 11.3 0.00 0.00 0.00 65 1011.6
20260503130149 70 80 6.1 10.4 0.00 0.00 0.00 65 1011.6
20260503120146 70 92 6.1 13.0 0.00 0.00 0.00 67 1012.2
20260503110647 69 113 4.3 10.4 0.00 0.00 0.00 65 1012.7
20260503110200 70 121 2.6 8.7 0.00 0.00 0.00 67 1012.8
20260503100159 68 102 3.5 10.4 0.00 0.00 0.00 71 1013.1